• In Belarus
  • List of Countries
  • For 7 days
  • Water Temperature
  • Weather Map
  • Weather Widgets
  • user-avatar
    Login

    Hourly Weather Avat

    Today, 25 January, Saturday

    Time Temperature Precipitation Wind Pressure Humidity
    00:00 -4°C° 0 mm 5 mps 647 mmHg 60%
    01:00 -4°C° 0 mm 5 mps 648 mmHg 70%
    02:00 -4°C° 0 mm 5 mps 649 mmHg 80%
    03:00 -3°C° 0.5 mm 4 mps 650 mmHg 82%
    04:00 -1°C° 0.5 mm 3 mps 650 mmHg 85%
    05:00 -1°C° 0.5 mm 2 mps 651 mmHg 87%
    06:00 -2°C° 0.3 mm 2 mps 651 mmHg 89%
    07:00 0°C° 0.3 mm 1 mps 652 mmHg 91%
    08:00 -1°C° 0.3 mm 0 mps 652 mmHg 92%
    09:00 0°C° 0 mm 1 mps 651 mmHg 93%
    10:00 0°C° 0 mm 1 mps 651 mmHg 95%
    11:00 0°C° 0 mm 1 mps 651 mmHg 96%
    12:00 0°C° 0 mm 1 mps 650 mmHg 96%
    13:00 0°C° 0 mm 1 mps 650 mmHg 96%
    14:00 0°C° 0 mm 1 mps 649 mmHg 95%
    15:00 -1°C° 0 mm 1 mps 649 mmHg 95%
    16:00 -2°C° 0 mm 1 mps 649 mmHg 95%
    17:00 -3°C° 0 mm 1 mps 649 mmHg 94%
    18:00 -3°C° 0 mm 1 mps 649 mmHg 91%
    19:00 -3°C° 0 mm 1 mps 649 mmHg 87%
    20:00 -4°C° 0 mm 1 mps 649 mmHg 84%
    21:00 -4°C° 0 mm 1 mps 649 mmHg 81%
    22:00 -4°C° 0 mm 1 mps 649 mmHg 78%
    23:00 -6°C° 0 mm 1 mps 649 mmHg 75%

    Tomorrow, 26 January, Sunday

    Time Temperature Precipitation Wind Pressure Humidity
    00:00 -6°C° 0 mm 1 mps 649 mmHg 74%
    01:00 -6°C° 0 mm 1 mps 649 mmHg 73%
    02:00 -6°C° 0 mm 1 mps 649 mmHg 72%
    03:00 -6°C° 0 mm 1 mps 649 mmHg 71%
    04:00 -6°C° 0 mm 1 mps 649 mmHg 71%
    05:00 -6°C° 0 mm 1 mps 650 mmHg 71%
    06:00 -6°C° 0 mm 1 mps 650 mmHg 74%
    07:00 -4°C° 0 mm 1 mps 650 mmHg 78%
    08:00 -4°C° 0 mm 1 mps 650 mmHg 81%
    09:00 -3°C° 0.1 mm 1 mps 651 mmHg 86%
    10:00 -3°C° 0.1 mm 1 mps 651 mmHg 90%
    11:00 -2°C° 0.1 mm 1 mps 651 mmHg 94%
    12:00 -2°C° 0.1 mm 1 mps 651 mmHg 95%
    13:00 -2°C° 0.1 mm 1 mps 651 mmHg 96%
    14:00 -2°C° 0.1 mm 1 mps 650 mmHg 97%
    15:00 -2°C° 0 mm 1 mps 650 mmHg 97%
    16:00 -3°C° 0 mm 1 mps 650 mmHg 97%
    17:00 -5°C° 0 mm 0 mps 651 mmHg 98%
    18:00 -4°C° 0 mm 1 mps 651 mmHg 95%
    19:00 -6°C° 0 mm 1 mps 651 mmHg 93%
    20:00 -6°C° 0 mm 1 mps 651 mmHg 90%
    21:00 -6°C° 0 mm 1 mps 651 mmHg 88%
    22:00 -6°C° 0 mm 1 mps 650 mmHg 86%
    23:00 -7°C° 0 mm 1 mps 650 mmHg 84%

    Day after tomorrow, 27 January, Monday

    Time Temperature Precipitation Wind Pressure Humidity
    00:00 -7°C° 0 mm 1 mps 650 mmHg 83%
    01:00 -7°C° 0 mm 1 mps 650 mmHg 81%
    02:00 -7°C° 0 mm 1 mps 650 mmHg 79%
    03:00 -7°C° 0 mm 1 mps 649 mmHg 78%
    04:00 -7°C° 0 mm 1 mps 649 mmHg 78%
    05:00 -7°C° 0 mm 1 mps 649 mmHg 77%
    06:00 -7°C° 0 mm 1 mps 649 mmHg 76%
    07:00 -7°C° 0 mm 1 mps 649 mmHg 75%
    08:00 -7°C° 0 mm 1 mps 649 mmHg 74%
    09:00 -6°C° 0 mm 1 mps 649 mmHg 75%
    10:00 -3°C° 0 mm 1 mps 649 mmHg 76%
    11:00 -2°C° 0 mm 1 mps 649 mmHg 77%
    12:00 -2°C° 0 mm 1 mps 648 mmHg 77%
    13:00 -2°C° 0 mm 1 mps 648 mmHg 77%
    14:00 -2°C° 0 mm 1 mps 647 mmHg 78%
    15:00 -3°C° 0 mm 1 mps 647 mmHg 73%
    16:00 -6°C° 0 mm 2 mps 647 mmHg 69%
    17:00 -7°C° 0 mm 2 mps 647 mmHg 64%
    18:00 -7°C° 0 mm 2 mps 648 mmHg 62%
    19:00 -7°C° 0 mm 2 mps 648 mmHg 60%
    20:00 -7°C° 0 mm 2 mps 649 mmHg 58%
    21:00 -8°C° 0 mm 3 mps 649 mmHg 62%
    22:00 -8°C° 0 mm 3 mps 650 mmHg 67%
    23:00 -8°C° 0 mm 3 mps 650 mmHg 71%

    28 January, Tuesday

    Time Temperature Precipitation Wind Pressure Humidity
    00:00 -9°C° 0.1 mm 4 mps 651 mmHg 76%
    01:00 -9°C° 0.1 mm 4 mps 652 mmHg 82%
    02:00 -8°C° 0.1 mm 4 mps 652 mmHg 87%
    03:00 -9°C° 0.2 mm 4 mps 653 mmHg 87%
    04:00 -8°C° 0.2 mm 3 mps 653 mmHg 86%
    05:00 -8°C° 0.2 mm 3 mps 654 mmHg 86%
    06:00 -8°C° 0 mm 2 mps 654 mmHg 85%
    07:00 -7°C° 0 mm 1 mps 654 mmHg 84%
    08:00 -7°C° 0 mm 0 mps 655 mmHg 83%
    09:00 -7°C° 0 mm 1 mps 655 mmHg 84%
    10:00 -6°C° 0 mm 1 mps 655 mmHg 85%
    11:00 -4°C° 0 mm 1 mps 655 mmHg 86%
    12:00 -4°C° 0 mm 1 mps 655 mmHg 88%
    13:00 -4°C° 0 mm 1 mps 654 mmHg 90%
    14:00 -6°C° 0 mm 2 mps 654 mmHg 91%
    15:00 -6°C° 0 mm 1 mps 654 mmHg 92%
    16:00 -6°C° 0 mm 1 mps 654 mmHg 92%
    17:00 -7°C° 0 mm 1 mps 654 mmHg 92%
    18:00 -8°C° 0 mm 1 mps 655 mmHg 89%
    19:00 -8°C° 0 mm 1 mps 655 mmHg 86%
    20:00 -8°C° 0 mm 1 mps 655 mmHg 83%
    21:00 -8°C° 0 mm 1 mps 655 mmHg 82%
    22:00 -8°C° 0 mm 1 mps 655 mmHg 81%
    23:00 -9°C° 0 mm 1 mps 654 mmHg 79%

    29 January, Wednesday

    Time Temperature Precipitation Wind Pressure Humidity
    00:00 -9°C° 0 mm 1 mps 654 mmHg 78%
    01:00 -9°C° 0 mm 1 mps 654 mmHg 77%
    02:00 -9°C° 0 mm 1 mps 654 mmHg 77%
    03:00 -9°C° 0 mm 1 mps 654 mmHg 75%
    04:00 -10°C° 0 mm 1 mps 654 mmHg 74%
    05:00 -10°C° 0 mm 1 mps 654 mmHg 72%
    06:00 -10°C° 0 mm 1 mps 654 mmHg 72%
    07:00 -10°C° 0 mm 1 mps 654 mmHg 72%
    08:00 -9°C° 0 mm 1 mps 654 mmHg 72%
    09:00 -8°C° 0 mm 1 mps 654 mmHg 72%
    10:00 -7°C° 0 mm 1 mps 654 mmHg 73%
    11:00 -4°C° 0 mm 1 mps 654 mmHg 73%
    12:00 -4°C° 0 mm 1 mps 654 mmHg 77%
    13:00 -4°C° 0 mm 1 mps 653 mmHg 80%
    14:00 -3°C° 0 mm 1 mps 653 mmHg 83%
    15:00 -6°C° 0 mm 1 mps 653 mmHg 83%
    16:00 -7°C° 0 mm 1 mps 652 mmHg 83%
    17:00 -9°C° 0 mm 1 mps 652 mmHg 84%
    18:00 -9°C° 0 mm 1 mps 652 mmHg 79%
    19:00 -9°C° 0 mm 1 mps 653 mmHg 74%
    20:00 -9°C° 0 mm 1 mps 653 mmHg 69%
    21:00 -9°C° 0 mm 1 mps 653 mmHg 68%
    22:00 -9°C° 0 mm 1 mps 653 mmHg 67%
    23:00 -9°C° 0 mm 1 mps 653 mmHg 66%

    30 January, Thursday

    Time Temperature Precipitation Wind Pressure Humidity
    00:00 -10°C° 0 mm 1 mps 653 mmHg 65%
    01:00 -10°C° 0 mm 1 mps 653 mmHg 65%
    02:00 -10°C° 0 mm 0 mps 653 mmHg 65%
    03:00 -10°C° 0 mm 0 mps 653 mmHg 65%
    04:00 -10°C° 0 mm 0 mps 653 mmHg 66%
    05:00 -10°C° 0 mm 0 mps 653 mmHg 66%
    06:00 -10°C° 0 mm 0 mps 653 mmHg 67%
    07:00 -9°C° 0 mm 0 mps 654 mmHg 68%
    08:00 -9°C° 0 mm 0 mps 654 mmHg 68%
    09:00 -8°C° 0 mm 1 mps 654 mmHg 70%
    10:00 -7°C° 0 mm 1 mps 654 mmHg 72%
    11:00 -6°C° 0 mm 1 mps 654 mmHg 73%
    12:00 -6°C° 0 mm 1 mps 654 mmHg 76%
    13:00 -6°C° 0 mm 1 mps 654 mmHg 79%
    14:00 -4°C° 0 mm 1 mps 653 mmHg 81%
    15:00 -7°C° 0 mm 1 mps 653 mmHg 82%
    16:00 -8°C° 0 mm 1 mps 653 mmHg 83%
    17:00 -10°C° 0 mm 0 mps 653 mmHg 83%
    18:00 -10°C° 0 mm 1 mps 653 mmHg 80%
    19:00 -10°C° 0 mm 1 mps 653 mmHg 77%
    20:00 -10°C° 0 mm 1 mps 653 mmHg 74%
    21:00 -10°C° 0 mm 1 mps 653 mmHg 73%
    22:00 -10°C° 0 mm 1 mps 653 mmHg 71%
    23:00 -10°C° 0 mm 1 mps 653 mmHg 70%
    Show more